Date,TemperatureHighF,TemperatureAvgF,TemperatureLowF,DewpointHighF,DewpointAvgF,DewpointLowF,HumidityHigh,HumidityAvg,HumidityLow,PressureMaxIn,PressureMinIn,WindSpeedMaxMPH,WindSpeedAvgMPH,GustSpeedMaxMPH,PrecipitationSumIn
2013-1-1,83,76,70,74,71,68,97,86,71,30.03,29.94,10,2,13,0.03
2013-1-2,84,76,70,72,68,65,92,76,59,30.01,29.92,10,2,14,0.00
2013-1-3,78,72,69,74,69,66,94,91,86,30.04,29.95,6,1,9,0.11
2013-1-6,83,80,76,73,71,69,86,75,66,30.08,29.99,13,5,16,0.00
2013-1-7,84,78,74,73,71,69,94,80,61,30.07,29.97,12,4,17,0.11
2013-1-8,83,77,73,74,71,69,92,83,66,30.10,29.99,15,4,19,0.07
2013-1-9,83,78,74,72,69,65,86,74,56,30.14,30.03,17,5,20,0.00
2013-1-10,81,76,73,72,70,67,93,81,69,30.12,30.02,13,4,16,0.25
2013-1-11,80,75,71,71,69,67,92,80,66,30.04,29.93,10,2,13,0.15
2013-1-12,82,74,69,72,70,68,97,86,67,29.95,29.88,12,2,12,0.30
2013-1-13,82,74,66,70,66,63,96,77,54,29.99,29.91,9,2,11,0.01
2013-1-14,80,73,67,71,66,64,96,80,59,30.02,29.93,11,2,12,0.18
2013-1-15,81,75,69,72,69,66,95,81,68,29.99,29.91,9,2,14,0.14
2013-1-16,79,73,69,72,69,66,95,87,74,30.01,29.91,8,2,16,0.04
2013-1-17,83,76,69,72,69,64,95,80,56,30.03,29.92,10,2,14,0.04
2013-1-18,83,76,71,72,70,68,94,82,67,30.04,29.95,7,1,12,0.01
2013-1-19,82,74,67,73,69,65,94,84,68,30.05,29.94,9,2,13,0.18
2013-1-20,83,75,68,73,69,67,97,85,63,30.03,29.92,8,1,13,0.01
2013-1-21,84,75,68,73,70,66,96,84,67,29.99,29.89,7,1,10,0.01
2013-1-23,88,78,70,75,71,68,95,80,51,30.07,29.96,9,2,13,0.02
2013-1-24,84,77,71,72,70,68,91,79,60,30.06,29.94,9,2,12,0.00
2013-1-25,84,76,68,74,70,66,95,82,59,30.05,29.96,9,2,16,0.23
2013-1-26,83,77,72,76,72,70,97,87,67,30.05,29.97,10,2,15,0.55
2013-1-27,83,76,69,74,71,68,96,84,69,30.09,29.99,10,2,14,0.00
2013-1-28,83,77,72,73,71,70,93,83,65,30.13,30.02,13,3,16,0.00
2013-1-29,82,75,71,73,71,69,96,86,67,30.09,29.98,11,2,17,0.54
2013-1-30,82,76,70,72,70,68,94,83,67,30.05,29.97,14,4,16,0.22
2013-1-31,84,76,69,75,72,68,97,88,68,30.04,29.95,12,2,16,0.17